TimePDT,TemperatureF,Dew PointF,Humidity,Sea Level PressureIn,VisibilityMPH,Wind Direction,Wind SpeedMPH,Gust SpeedMPH,PrecipitationIn,Events,Conditions,WindDirDegrees,DateUTC
12:55 AM,52.0,52.0,100,30.28,9.0,Calm,Calm,-,N/A,,Overcast,0,2013-11-01 07:55:00
1:55 AM,52.0,51.1,97,30.27,9.0,East,3.5,-,N/A,,Overcast,100,2013-11-01 08:55:00
2:55 AM,50.0,50.0,100,30.27,4.0,Calm,Calm,-,N/A,,Mostly Cloudy,0,2013-11-01 09:55:00
2:59 AM,50.0,50.0,100,30.27,1.5,Calm,Calm,-,N/A,,Mostly Cloudy,0,2013-11-01 09:59:00
3:02 AM,50.0,48.2,94,30.27,0.8,Calm,Calm,-,N/A,,Mostly Cloudy,0,2013-11-01 10:02:00
3:11 AM,50.0,48.2,94,30.27,0.2,Calm,Calm,-,N/A,Fog,Fog,0,2013-11-01 10:11:00
3:38 AM,48.2,48.2,100,30.27,0.2,Calm,Calm,-,N/A,Fog,Fog,0,2013-11-01 10:38:00
3:55 AM,48.0,46.9,96,30.26,0.2,Calm,Calm,-,N/A,Fog,Fog,0,2013-11-01 10:55:00
4:55 AM,48.9,48.9,100,30.26,0.2,Calm,Calm,-,N/A,Fog,Fog,0,2013-11-01 11:55:00
5:55 AM,50.0,48.9,96,30.25,0.2,East,5.8,-,N/A,Fog,Fog,80,2013-11-01 12:55:00
6:11 AM,48.2,48.2,100,30.25,0.8,ENE,4.6,-,N/A,,Mist,70,2013-11-01 13:11:00
6:55 AM,50.0,48.9,96,30.25,0.5,East,3.5,-,N/A,Fog,Fog,100,2013-11-01 13:55:00
7:03 AM,50.0,48.2,94,30.24,1.5,East,3.5,-,N/A,,Overcast,80,2013-11-01 14:03:00
7:09 AM,50.0,48.2,94,30.24,3.0,East,3.5,-,N/A,,Overcast,90,2013-11-01 14:09:00
7:27 AM,48.2,48.2,100,30.24,2.5,East,6.9,-,N/A,,Overcast,100,2013-11-01 14:27:00
7:37 AM,48.2,48.2,100,30.23,4.0,East,9.2,-,N/A,,Overcast,80,2013-11-01 14:37:00
7:55 AM,48.9,48.9,100,30.23,4.0,East,4.6,-,N/A,,Overcast,90,2013-11-01 14:55:00
8:32 AM,48.2,48.2,100,30.24,2.0,ESE,4.6,-,N/A,,Overcast,120,2013-11-01 15:32:00
8:45 AM,48.2,48.2,100,30.24,4.0,East,4.6,-,N/A,,Overcast,90,2013-11-01 15:45:00
8:55 AM,48.9,48.9,100,30.24,4.0,East,5.8,-,N/A,,Overcast,80,2013-11-01 15:55:00
9:41 AM,50.0,48.2,94,30.22,6.0,East,6.9,-,N/A,,Partly Cloudy,90,2013-11-01 16:41:00
9:55 AM,50.0,48.9,96,30.22,5.0,East,4.6,-,N/A,,Partly Cloudy,90,2013-11-01 16:55:00
10:16 AM,51.8,50.0,94,30.22,7.0,NE,6.9,-,N/A,,Mostly Cloudy,50,2013-11-01 17:16:00
10:53 AM,51.8,48.2,88,30.21,8.0,East,6.9,-,N/A,,Partly Cloudy,80,2013-11-01 17:53:00
10:55 AM,52.0,48.9,89,30.21,8.0,East,6.9,-,N/A,,Partly Cloudy,80,2013-11-01 17:55:00
11:23 AM,55.4,51.8,88,30.20,9.0,East,8.1,-,N/A,,Mostly Cloudy,90,2013-11-01 18:23:00
11:31 AM,55.4,51.8,88,30.20,9.0,East,8.1,-,N/A,,Scattered Clouds,90,2013-11-01 18:31:00
11:55 AM,55.9,51.1,84,30.19,9.0,ENE,6.9,-,N/A,,Clear,70,2013-11-01 18:55:00
12:55 PM,57.9,51.1,78,30.16,10.0,NE,8.1,-,N/A,,Clear,40,2013-11-01 19:55:00
1:55 PM,57.9,51.1,78,30.14,10.0,North,8.1,-,N/A,,Scattered Clouds,10,2013-11-01 20:55:00
2:55 PM,59.0,50.0,72,30.10,10.0,NNE,3.5,-,N/A,,Clear,20,2013-11-01 21:55:00
3:55 PM,59.0,51.1,75,30.07,10.0,NNE,4.6,-,N/A,,Clear,30,2013-11-01 22:55:00
4:55 PM,59.0,51.1,75,30.04,10.0,Calm,Calm,-,N/A,,Overcast,0,2013-11-01 23:55:00
5:55 PM,55.9,52.0,87,30.02,8.0,West,6.9,-,N/A,,Mostly Cloudy,260,2013-11-02 00:55:00
6:55 PM,52.0,50.0,93,29.98,9.0,WSW,5.8,-,N/A,,Mostly Cloudy,240,2013-11-02 01:55:00
7:55 PM,52.0,51.1,97,29.95,8.0,Calm,Calm,-,0.01,,Mostly Cloudy,0,2013-11-02 02:55:00
8:55 PM,52.0,51.1,97,29.92,8.0,SE,6.9,-,N/A,,Overcast,140,2013-11-02 03:55:00
9:55 PM,53.1,51.1,93,29.89,8.0,East,3.5,-,0.00,Rain,Light Rain,100,2013-11-02 04:55:00
10:55 PM,53.1,52.0,96,29.86,4.0,Calm,Calm,-,0.02,Rain,Rain,0,2013-11-02 05:55:00
11:55 PM,53.1,50.0,89,29.84,5.0,SSE,3.5,-,0.08,Rain,Light Rain,150,2013-11-02 06:55:00